Time,TemperatureF,DewpointF,PressureIn,WindDirection,WindDirectionDegrees,WindSpeedMPH,WindSpeedGustMPH,Humidity,HourlyPrecipIn,Conditions,Clouds,dailyrainin,SoftwareType,DateUTC
2013-06-09 00:04:00,56.4,40.9,29.90,WSW,249,1.0,1.0,56,0.00,,,0.00,WeatherDisplay:10.34,2013-06-09 06:04:00,
2013-06-09 00:09:00,56.2,40.7,29.90,WSW,249,0.0,0.0,56,0.00,,,0.00,WeatherDisplay:10.34,2013-06-09 06:09:00,
2013-06-09 00:14:00,55.5,41.0,29.91,WSW,249,3.0,3.0,58,0.00,,,0.00,WeatherDisplay:10.34,2013-06-09 06:14:00,
2013-06-09 00:19:00,55.1,41.5,29.91,WSW,249,1.0,1.0,60,0.00,,,0.00,WeatherDisplay:10.34,2013-06-09 06:19:00,
2013-06-09 00:24:00,54.9,41.3,29.91,WSW,249,1.0,2.0,60,0.00,,,0.00,WeatherDisplay:10.34,2013-06-09 06:24:00,
2013-06-09 00:29:00,54.8,41.6,29.91,WSW,249,3.0,3.0,61,0.00,,,0.00,WeatherDisplay:10.34,2013-06-09 06:29:00,
2013-06-09 00:34:00,54.6,41.8,29.91,SSW,200,5.0,7.0,62,0.00,,,0.00,WeatherDisplay:10.34,2013-06-09 06:34:00,
2013-06-09 00:39:00,54.2,41.5,29.91,SSW,200,4.0,4.0,62,0.00,,,0.00,WeatherDisplay:10.34,2013-06-09 06:39:00,
2013-06-09 00:44:00,54.0,41.7,29.91,SSW,200,1.0,1.0,63,0.00,,,0.00,WeatherDisplay:10.34,2013-06-09 06:44:00,
2013-06-09 00:49:00,53.7,41.8,29.91,SSW,200,4.0,4.0,64,0.00,,,0.00,WeatherDisplay:10.34,2013-06-09 06:49:00,
2013-06-09 00:54:00,53.1,41.6,29.91,SSW,200,1.0,1.0,65,0.00,,,0.00,WeatherDisplay:10.34,2013-06-09 06:54:00,
2013-06-09 00:59:00,52.9,41.8,29.91,SSW,201,5.0,5.0,66,0.00,,,0.00,WeatherDisplay:10.34,2013-06-09 06:59:00,
2013-06-09 01:04:00,52.8,42.1,29.91,SSW,200,1.0,1.0,67,0.00,CLR,CLR,0.00,WeatherDisplay:10.34,2013-06-09 07:04:00,
2013-06-09 01:09:00,52.7,42.0,29.91,SSW,200,3.0,3.0,67,0.00,CLR,CLR,0.00,WeatherDisplay:10.34,2013-06-09 07:09:00,
2013-06-09 01:14:00,52.6,42.3,29.91,SSW,201,2.0,2.0,68,0.00,CLR,CLR,0.00,WeatherDisplay:10.34,2013-06-09 07:14:00,
2013-06-09 01:19:00,52.2,42.0,29.91,SSW,201,0.0,1.0,68,0.00,CLR,CLR,0.00,WeatherDisplay:10.34,2013-06-09 07:19:00,
2013-06-09 01:24:00,52.0,42.1,29.91,SSW,200,2.0,2.0,69,0.00,CLR,CLR,0.00,WeatherDisplay:10.34,2013-06-09 07:24:00,
2013-06-09 01:29:00,51.7,41.9,29.91,SSW,200,2.0,3.0,69,0.00,CLR,CLR,0.00,WeatherDisplay:10.34,2013-06-09 07:29:00,
2013-06-09 01:34:00,51.5,42.0,29.91,SSW,201,0.0,1.0,70,0.00,CLR,CLR,0.00,WeatherDisplay:10.34,2013-06-09 07:34:00,
2013-06-09 01:39:00,51.5,42.0,29.91,SSW,200,0.0,0.0,70,0.00,CLR,CLR,0.00,WeatherDisplay:10.34,2013-06-09 07:39:00,
2013-06-09 01:44:00,51.5,42.0,29.91,SSW,201,0.0,0.0,70,0.00,CLR,CLR,0.00,WeatherDisplay:10.34,2013-06-09 07:44:00,
2013-06-09 01:49:00,51.5,41.7,29.91,SSW,201,0.0,0.0,69,0.00,CLR,CLR,0.00,WeatherDisplay:10.34,2013-06-09 07:49:00,
2013-06-09 01:54:00,51.4,41.6,29.91,SSW,200,0.0,0.0,69,0.00,CLR,CLR,0.00,WeatherDisplay:10.34,2013-06-09 07:54:00,
2013-06-09 01:59:00,51.3,41.8,29.91,SSW,201,0.0,0.0,70,0.00,CLR,CLR,0.00,WeatherDisplay:10.34,2013-06-09 07:59:00,
2013-06-09 02:04:00,51.2,41.7,29.91,SSW,201,0.0,0.0,70,0.00,CLR,CLR,0.00,WeatherDisplay:10.34,2013-06-09 08:04:00,
2013-06-09 02:09:00,51.2,42.1,29.91,SSW,200,3.0,3.0,71,0.00,CLR,CLR,0.00,WeatherDisplay:10.34,2013-06-09 08:09:00,
2013-06-09 02:14:00,51.1,42.0,29.91,SSW,201,0.0,0.0,71,0.00,CLR,CLR,0.00,WeatherDisplay:10.34,2013-06-09 08:14:00,
2013-06-09 02:19:00,51.0,42.3,29.91,SSW,200,0.0,0.0,72,0.00,CLR,CLR,0.00,WeatherDisplay:10.34,2013-06-09 08:19:00,
2013-06-09 02:24:00,51.0,41.9,29.91,SSW,201,0.0,0.0,71,0.00,CLR,CLR,0.00,WeatherDisplay:10.34,2013-06-09 08:24:00,
2013-06-09 02:29:00,50.9,42.2,29.91,SSW,201,0.0,0.0,72,0.00,CLR,CLR,0.00,WeatherDisplay:10.34,2013-06-09 08:29:00,
2013-06-09 02:34:00,50.7,41.6,29.91,SSW,201,2.0,2.0,71,0.00,CLR,CLR,0.00,WeatherDisplay:10.34,2013-06-09 08:34:00,
2013-06-09 02:39:00,50.5,42.2,29.91,SSW,201,0.0,1.0,73,0.00,CLR,CLR,0.00,WeatherDisplay:10.34,2013-06-09 08:39:00,
2013-06-09 02:44:00,50.5,42.2,29.91,SSW,201,2.0,2.0,73,0.00,CLR,CLR,0.00,WeatherDisplay:10.34,2013-06-09 08:44:00,
2013-06-09 02:49:00,50.3,42.3,29.91,SSW,201,1.0,1.0,74,0.00,CLR,CLR,0.00,WeatherDisplay:10.34,2013-06-09 08:49:00,
2013-06-09 02:54:00,50.3,42.0,29.91,SSW,200,3.0,3.0,73,0.00,CLR,CLR,0.00,WeatherDisplay:10.34,2013-06-09 08:54:00,
2013-06-09 02:59:00,50.2,41.5,29.91,SSW,200,0.0,1.0,72,0.00,CLR,CLR,0.00,WeatherDisplay:10.34,2013-06-09 08:59:00,
2013-06-09 03:04:00,49.7,41.4,29.91,SSW,200,3.0,3.0,73,0.00,CLR,CLR,0.00,WeatherDisplay:10.34,2013-06-09 09:04:00,
2013-06-09 03:09:00,49.5,41.6,29.91,SSW,201,2.0,2.0,74,0.00,CLR,CLR,0.00,WeatherDisplay:10.34,2013-06-09 09:09:00,
2013-06-09 03:14:00,49.5,41.9,29.91,SSW,200,4.0,4.0,75,0.00,CLR,CLR,0.00,WeatherDisplay:10.34,2013-06-09 09:14:00,
2013-06-09 03:19:00,49.5,41.9,29.91,SSW,200,4.0,4.0,75,0.00,CLR,CLR,0.00,WeatherDisplay:10.34,2013-06-09 09:19:00,
2013-06-09 03:24:00,49.6,42.3,29.91,SW,215,3.0,5.0,76,0.00,CLR,CLR,0.00,WeatherDisplay:10.34,2013-06-09 09:24:00,
2013-06-09 03:29:00,49.7,42.4,29.91,SW,215,4.0,5.0,76,0.00,CLR,CLR,0.00,WeatherDisplay:10.34,2013-06-09 09:29:00,
2013-06-09 03:34:00,49.9,42.6,29.91,SSW,210,5.0,7.0,76,0.00,CLR,CLR,0.00,WeatherDisplay:10.34,2013-06-09 09:34:00,
2013-06-09 03:39:00,49.9,42.6,29.91,SW,215,9.0,9.0,76,0.00,CLR,CLR,0.00,WeatherDisplay:10.34,2013-06-09 09:39:00,
2013-06-09 03:44:00,49.9,42.6,29.91,SW,215,1.0,2.0,76,0.00,CLR,CLR,0.00,WeatherDisplay:10.34,2013-06-09 09:44:00,
2013-06-09 03:49:00,49.8,42.9,29.91,SSW,195,8.0,8.0,77,0.00,CLR,CLR,0.00,WeatherDisplay:10.34,2013-06-09 09:49:00,
2013-06-09 03:54:00,49.8,42.9,29.91,SSW,212,8.0,8.0,77,0.00,CLR,CLR,0.00,WeatherDisplay:10.34,2013-06-09 09:54:00,
2013-06-09 03:59:00,49.9,43.0,29.91,SSW,209,9.0,9.0,77,0.00,CLR,CLR,0.00,WeatherDisplay:10.34,2013-06-09 09:59:00,
2013-06-09 04:04:00,50.1,43.2,29.91,SSW,204,9.0,9.0,77,0.00,CLR,CLR,0.00,WeatherDisplay:10.34,2013-06-09 10:04:00,
2013-06-09 04:09:00,50.3,43.0,29.91,SW,228,8.0,8.0,76,0.00,CLR,CLR,0.00,WeatherDisplay:10.34,2013-06-09 10:09:00,
2013-06-09 04:14:00,50.6,43.3,29.91,SSW,202,9.0,9.0,76,0.00,CLR,CLR,0.00,WeatherDisplay:10.34,2013-06-09 10:14:00,
2013-06-09 04:19:00,50.8,43.2,29.91,SW,223,6.0,6.0,75,0.00,CLR,CLR,0.00,WeatherDisplay:10.34,2013-06-09 10:19:00,
2013-06-09 04:24:00,50.8,43.2,29.92,SW,231,5.0,5.0,75,0.00,CLR,CLR,0.00,WeatherDisplay:10.34,2013-06-09 10:24:00,
2013-06-09 04:29:00,50.8,42.8,29.91,SSW,202,6.0,7.0,74,0.00,CLR,CLR,0.00,WeatherDisplay:10.34,2013-06-09 10:29:00,
2013-06-09 04:34:00,50.9,42.6,29.92,SW,230,6.0,7.0,73,0.00,CLR,CLR,0.00,WeatherDisplay:10.34,2013-06-09 10:34:00,
2013-06-09 04:39:00,50.9,41.8,29.92,SW,234,7.0,9.0,71,0.00,CLR,CLR,0.00,WeatherDisplay:10.34,2013-06-09 10:39:00,
2013-06-09 04:44:00,51.0,41.6,29.92,WSW,248,3.0,5.0,70,0.00,CLR,CLR,0.00,WeatherDisplay:10.34,2013-06-09 10:44:00,
2013-06-09 04:49:00,51.0,41.6,29.92,WSW,248,3.0,5.0,70,0.00,CLR,CLR,0.00,WeatherDisplay:10.34,2013-06-09 10:49:00,
2013-06-09 04:54:00,51.0,41.2,29.92,SW,227,5.0,7.0,69,0.00,CLR,CLR,0.00,WeatherDisplay:10.34,2013-06-09 10:54:00,
2013-06-09 04:59:00,51.1,40.9,29.92,SW,222,4.0,4.0,68,0.00,CLR,CLR,0.00,WeatherDisplay:10.34,2013-06-09 10:59:00,
2013-06-09 05:04:00,51.1,40.9,29.92,SW,214,5.0,7.0,68,0.00,OVC,OVC,0.00,WeatherDisplay:10.34,2013-06-09 11:04:00,
2013-06-09 05:09:00,51.1,40.9,29.92,SW,223,6.0,7.0,68,0.00,OVC,OVC,0.00,WeatherDisplay:10.34,2013-06-09 11:09:00,
2013-06-09 05:14:00,51.2,41.0,29.92,WSW,237,4.0,4.0,68,0.00,OVC,OVC,0.00,WeatherDisplay:10.34,2013-06-09 11:14:00,
2013-06-09 05:19:00,51.2,41.0,29.92,SW,221,7.0,7.0,68,0.00,OVC,OVC,0.00,WeatherDisplay:10.34,2013-06-09 11:19:00,
2013-06-09 05:24:00,51.2,41.0,29.93,SW,221,7.0,7.0,68,0.00,OVC,OVC,0.00,WeatherDisplay:10.34,2013-06-09 11:24:00,
2013-06-09 05:29:00,51.2,41.4,29.93,SW,222,9.0,10.0,69,0.00,OVC,OVC,0.00,WeatherDisplay:10.34,2013-06-09 11:29:00,
2013-06-09 05:34:00,51.2,41.4,29.93,SW,223,7.0,8.0,69,0.00,OVC,OVC,0.00,WeatherDisplay:10.34,2013-06-09 11:34:00,
2013-06-09 05:39:00,51.2,41.4,29.93,SW,229,7.0,7.0,69,0.00,OVC,OVC,0.00,WeatherDisplay:10.34,2013-06-09 11:39:00,
2013-06-09 05:44:00,51.3,41.1,29.93,SW,234,6.0,7.0,68,0.00,OVC,OVC,0.00,WeatherDisplay:10.34,2013-06-09 11:44:00,
2013-06-09 05:49:00,51.4,41.2,29.93,SW,232,3.0,5.0,68,0.00,OVC,OVC,0.00,WeatherDisplay:10.34,2013-06-09 11:49:00,
2013-06-09 05:54:00,51.4,41.2,29.93,WSW,256,6.0,7.0,68,0.00,OVC,OVC,0.00,WeatherDisplay:10.34,2013-06-09 11:54:00,
2013-06-09 05:59:00,51.5,40.9,29.93,SW,227,5.0,7.0,67,0.00,OVC,OVC,0.00,WeatherDisplay:10.34,2013-06-09 11:59:00,
2013-06-09 06:04:00,51.6,40.6,29.93,WSW,253,5.0,5.0,66,0.00,OVC,OVC,0.00,WeatherDisplay:10.34,2013-06-09 12:04:00,
2013-06-09 06:09:00,51.8,40.8,29.93,SW,236,6.0,7.0,66,0.00,CLR,CLR,0.00,WeatherDisplay:10.34,2013-06-09 12:09:00,
2013-06-09 06:14:00,51.9,40.9,29.92,SW,222,6.0,7.0,66,0.00,CLR,CLR,0.00,WeatherDisplay:10.34,2013-06-09 12:14:00,
2013-06-09 06:19:00,51.9,40.9,29.92,SW,223,4.0,5.0,66,0.00,FEW,FEW,0.00,WeatherDisplay:10.34,2013-06-09 12:19:00,
2013-06-09 06:24:00,52.1,41.1,29.92,SW,218,6.0,6.0,66,0.00,CLR,CLR,0.00,WeatherDisplay:10.34,2013-06-09 12:24:00,
2013-06-09 06:29:00,52.3,41.3,29.92,SW,229,7.0,8.0,66,0.00,CLR,CLR,0.00,WeatherDisplay:10.34,2013-06-09 12:29:00,
2013-06-09 06:34:00,52.5,41.5,29.93,SW,231,6.0,7.0,66,0.00,CLR,CLR,0.00,WeatherDisplay:10.34,2013-06-09 12:34:00,
2013-06-09 06:39:00,52.7,41.7,29.93,SW,232,6.0,7.0,66,0.00,CLR,CLR,0.00,WeatherDisplay:10.34,2013-06-09 12:39:00,
2013-06-09 06:44:00,52.9,41.8,29.93,SW,233,6.0,7.0,66,0.00,CLR,CLR,0.00,WeatherDisplay:10.34,2013-06-09 12:44:00,
2013-06-09 06:49:00,53.3,42.2,29.93,WSW,248,8.0,8.0,66,0.00,CLR,CLR,0.00,WeatherDisplay:10.34,2013-06-09 12:49:00,
2013-06-09 06:54:00,53.5,42.8,29.93,SW,229,4.0,4.0,67,0.00,CLR,CLR,0.00,WeatherDisplay:10.34,2013-06-09 12:54:00,
2013-06-09 06:59:00,53.9,43.2,29.93,SW,214,5.0,7.0,67,0.00,CLR,CLR,0.00,WeatherDisplay:10.34,2013-06-09 12:59:00,
2013-06-09 07:04:00,54.5,43.4,29.93,SW,214,6.0,7.0,66,0.00,CLR,CLR,0.00,WeatherDisplay:10.34,2013-06-09 13:04:00,
2013-06-09 07:09:00,55.1,44.3,29.93,SW,227,4.0,5.0,67,0.00,CLR,CLR,0.00,WeatherDisplay:10.34,2013-06-09 13:09:00,
2013-06-09 07:14:00,55.6,44.0,29.94,SW,230,10.0,10.0,65,0.00,CLR,CLR,0.00,WeatherDisplay:10.34,2013-06-09 13:14:00,
2013-06-09 07:19:00,56.3,43.9,29.94,SW,217,9.0,9.0,63,0.00,CLR,CLR,0.00,WeatherDisplay:10.34,2013-06-09 13:19:00,
2013-06-09 07:24:00,56.9,43.6,29.93,SW,236,7.0,7.0,61,0.00,CLR,CLR,0.00,WeatherDisplay:10.34,2013-06-09 13:24:00,
2013-06-09 07:29:00,57.3,44.4,29.93,SW,223,4.0,4.0,62,0.00,CLR,CLR,0.00,WeatherDisplay:10.34,2013-06-09 13:29:00,
2013-06-09 07:34:00,58.0,44.6,29.93,WSW,237,4.0,4.0,61,0.00,CLR,CLR,0.00,WeatherDisplay:10.34,2013-06-09 13:34:00,
2013-06-09 07:39:00,58.5,45.1,29.93,SW,226,3.0,3.0,61,0.00,CLR,CLR,0.00,WeatherDisplay:10.34,2013-06-09 13:39:00,
2013-06-09 07:44:00,59.0,45.6,29.93,SW,217,4.0,4.0,61,0.00,CLR,CLR,0.00,WeatherDisplay:10.34,2013-06-09 13:44:00,
2013-06-09 07:49:00,59.9,45.1,29.93,SSW,213,4.0,4.0,58,0.00,CLR,CLR,0.00,WeatherDisplay:10.34,2013-06-09 13:49:00,
2013-06-09 07:54:00,60.7,45.8,29.93,WSW,244,4.0,4.0,58,0.00,CLR,CLR,0.00,WeatherDisplay:10.34,2013-06-09 13:54:00,
2013-06-09 07:59:00,61.4,45.6,29.93,SSW,212,6.0,6.0,56,0.00,CLR,CLR,0.00,WeatherDisplay:10.34,2013-06-09 13:59:00,
2013-06-09 08:04:00,62.1,46.2,29.93,SSW,210,5.0,5.0,56,0.00,CLR,CLR,0.00,WeatherDisplay:10.34,2013-06-09 14:04:00,
2013-06-09 08:09:00,62.9,45.5,29.93,SW,215,5.0,5.0,53,0.00,CLR,CLR,0.00,WeatherDisplay:10.34,2013-06-09 14:09:00,
2013-06-09 08:14:00,63.7,45.2,29.94,SSW,206,3.0,3.0,51,0.00,CLR,CLR,0.00,WeatherDisplay:10.34,2013-06-09 14:14:00,
2013-06-09 08:19:00,64.2,44.6,29.94,SSW,209,1.0,2.0,49,0.00,CLR,CLR,0.00,WeatherDisplay:10.34,2013-06-09 14:19:00,
2013-06-09 08:24:00,64.7,43.4,29.93,SW,215,2.0,2.0,46,0.00,CLR,CLR,0.00,WeatherDisplay:10.34,2013-06-09 14:24:00,
2013-06-09 08:29:00,65.6,44.8,29.93,SSW,207,2.0,5.0,47,0.00,CLR,CLR,0.00,WeatherDisplay:10.34,2013-06-09 14:29:00,
2013-06-09 08:34:00,66.3,43.7,29.93,South,169,3.0,3.0,44,0.00,CLR,CLR,0.00,WeatherDisplay:10.34,2013-06-09 14:34:00,
2013-06-09 08:39:00,66.9,43.7,29.93,SSE,160,2.0,2.0,43,0.00,CLR,CLR,0.00,WeatherDisplay:10.34,2013-06-09 14:39:00,
2013-06-09 08:44:00,67.3,42.8,29.93,SSE,160,2.0,2.0,41,0.00,CLR,CLR,0.00,WeatherDisplay:10.34,2013-06-09 14:44:00,
2013-06-09 08:49:00,67.8,43.9,29.93,North,355,1.0,1.0,42,0.00,CLR,CLR,0.00,WeatherDisplay:10.34,2013-06-09 14:49:00,
2013-06-09 08:54:00,68.4,41.8,29.92,North,350,0.0,1.0,38,0.00,CLR,CLR,0.00,WeatherDisplay:10.34,2013-06-09 14:54:00,
2013-06-09 08:59:00,69.2,40.4,29.92,WNW,288,0.0,1.0,35,0.00,CLR,CLR,0.00,WeatherDisplay:10.34,2013-06-09 14:59:00,
2013-06-09 09:04:00,69.8,41.6,29.92,WNW,288,0.0,1.0,36,0.00,CLR,CLR,0.00,WeatherDisplay:10.34,2013-06-09 15:04:00,
2013-06-09 09:09:00,70.4,42.2,29.92,NW,315,1.0,1.0,36,0.00,CLR,CLR,0.00,WeatherDisplay:10.34,2013-06-09 15:09:00,
2013-06-09 09:14:00,70.7,40.2,29.92,NE,48,0.0,0.0,33,0.00,CLR,CLR,0.00,WeatherDisplay:10.34,2013-06-09 15:14:00,
2013-06-09 09:19:00,70.9,41.9,29.92,NNW,342,2.0,2.0,35,0.00,CLR,CLR,0.00,WeatherDisplay:10.34,2013-06-09 15:19:00,
2013-06-09 09:24:00,71.3,40.7,29.92,NNW,342,1.0,1.0,33,0.00,CLR,CLR,0.00,WeatherDisplay:10.34,2013-06-09 15:24:00,
2013-06-09 09:29:00,71.7,41.0,29.92,NNW,342,0.0,1.0,33,0.00,CLR,CLR,0.00,WeatherDisplay:10.34,2013-06-09 15:29:00,
2013-06-09 09:34:00,72.0,42.1,29.92,WSW,240,0.0,0.0,34,0.00,CLR,CLR,0.00,WeatherDisplay:10.34,2013-06-09 15:34:00,
2013-06-09 09:39:00,72.5,42.5,29.92,NE,43,4.0,5.0,34,0.00,CLR,CLR,0.00,WeatherDisplay:10.34,2013-06-09 15:39:00,
2013-06-09 09:44:00,73.0,42.2,29.92,NE,50,3.0,3.0,33,0.00,CLR,CLR,0.00,WeatherDisplay:10.34,2013-06-09 15:44:00,
2013-06-09 09:49:00,73.3,41.6,29.91,NNE,28,0.0,1.0,32,0.00,CLR,CLR,0.00,WeatherDisplay:10.34,2013-06-09 15:49:00,
2013-06-09 09:54:00,73.5,41.8,29.91,North,355,6.0,7.0,32,0.00,CLR,CLR,0.00,WeatherDisplay:10.34,2013-06-09 15:54:00,
2013-06-09 09:59:00,73.8,42.9,29.91,NNW,348,1.0,2.0,33,0.00,CLR,CLR,0.00,WeatherDisplay:10.34,2013-06-09 15:59:00,
2013-06-09 10:04:00,74.2,41.6,29.91,NNW,346,1.0,1.0,31,0.00,CLR,CLR,0.00,WeatherDisplay:10.34,2013-06-09 16:04:00,
2013-06-09 10:09:00,74.5,41.9,29.91,NNW,334,4.0,4.0,31,0.00,CLR,CLR,0.00,WeatherDisplay:10.34,2013-06-09 16:09:00,
2013-06-09 10:14:00,74.4,41.8,29.90,WNW,301,1.0,0.0,31,0.00,CLR,CLR,0.00,WeatherDisplay:10.34,2013-06-09 16:14:00,
2013-06-09 10:19:00,74.5,42.7,29.90,NW,319,0.0,0.0,32,0.00,CLR,CLR,0.00,WeatherDisplay:10.34,2013-06-09 16:19:00,
2013-06-09 10:24:00,74.9,42.2,29.90,NNE,30,1.0,1.0,31,0.00,CLR,CLR,0.00,WeatherDisplay:10.34,2013-06-09 16:24:00,
2013-06-09 10:29:00,75.5,41.0,29.90,NE,45,5.0,5.0,29,0.00,CLR,CLR,0.00,WeatherDisplay:10.34,2013-06-09 16:29:00,
2013-06-09 10:34:00,75.8,40.4,29.89,ENE,71,6.0,7.0,28,0.00,CLR,CLR,0.00,WeatherDisplay:10.34,2013-06-09 16:34:00,
2013-06-09 10:39:00,75.9,40.4,29.89,NNE,29,1.0,2.0,28,0.00,CLR,CLR,0.00,WeatherDisplay:10.34,2013-06-09 16:39:00,
2013-06-09 10:44:00,75.6,40.2,29.89,ESE,109,8.0,8.0,28,0.00,CLR,CLR,0.00,WeatherDisplay:10.34,2013-06-09 16:44:00,
2013-06-09 10:49:00,74.9,41.4,29.89,ESE,117,10.0,10.0,30,0.00,CLR,CLR,0.00,WeatherDisplay:10.34,2013-06-09 16:49:00,
2013-06-09 10:54:00,74.6,41.1,29.89,ESE,104,6.0,8.0,30,0.00,CLR,CLR,0.00,WeatherDisplay:10.34,2013-06-09 16:54:00,
2013-06-09 10:59:00,74.9,41.3,29.89,ESE,107,3.0,5.0,30,0.00,CLR,CLR,0.00,WeatherDisplay:10.34,2013-06-09 16:59:00,
2013-06-09 11:05:00,75.3,40.8,29.89,East,93,10.0,12.0,29,0.00,CLR,CLR,0.00,WeatherDisplay:10.34,2013-06-09 17:05:00,
2013-06-09 11:10:00,75.5,41.9,29.89,East,91,5.0,8.0,30,0.00,CLR,CLR,0.00,WeatherDisplay:10.34,2013-06-09 17:10:00,
2013-06-09 11:15:00,76.0,41.4,29.88,East,87,4.0,7.0,29,0.00,CLR,CLR,0.00,WeatherDisplay:10.34,2013-06-09 17:15:00,
2013-06-09 11:20:00,75.8,40.4,29.87,South,187,9.0,9.0,28,0.00,CLR,CLR,0.00,WeatherDisplay:10.34,2013-06-09 17:20:00,
2013-06-09 11:25:00,75.5,41.0,29.87,South,174,6.0,7.0,29,0.00,CLR,CLR,0.00,WeatherDisplay:10.34,2013-06-09 17:25:00,
2013-06-09 11:30:00,75.7,41.2,29.87,ESE,121,3.0,7.0,29,0.00,CLR,CLR,0.00,WeatherDisplay:10.34,2013-06-09 17:30:00,
2013-06-09 11:35:00,75.9,41.3,29.87,SE,145,8.0,9.0,29,0.00,CLR,CLR,0.00,WeatherDisplay:10.34,2013-06-09 17:35:00,
2013-06-09 11:40:00,75.4,40.9,29.86,SE,134,1.0,3.0,29,0.00,CLR,CLR,0.00,WeatherDisplay:10.34,2013-06-09 17:40:00,
2013-06-09 11:45:00,75.9,43.9,29.86,East,88,10.0,10.0,32,0.00,CLR,CLR,0.00,WeatherDisplay:10.34,2013-06-09 17:45:00,
2013-06-09 11:50:00,76.4,41.8,29.86,ESE,103,10.0,13.0,29,0.00,CLR,CLR,0.00,WeatherDisplay:10.34,2013-06-09 17:50:00,
2013-06-09 11:55:00,76.5,41.9,29.86,East,92,6.0,9.0,29,0.00,CLR,CLR,0.00,WeatherDisplay:10.34,2013-06-09 17:55:00,
2013-06-09 12:00:00,76.7,42.0,29.86,East,90,3.0,3.0,29,0.00,CLR,CLR,0.00,WeatherDisplay:10.34,2013-06-09 18:00:00,
2013-06-09 12:05:00,77.4,42.6,29.85,SE,130,14.0,14.0,29,0.00,CLR,CLR,0.00,WeatherDisplay:10.34,2013-06-09 18:05:00,
2013-06-09 12:10:00,77.5,43.6,29.85,SE,124,9.0,13.0,30,0.00,CLR,CLR,0.00,WeatherDisplay:10.34,2013-06-09 18:10:00,
2013-06-09 12:15:00,78.1,41.4,29.86,ENE,70,5.0,8.0,27,0.00,CLR,CLR,0.00,WeatherDisplay:10.34,2013-06-09 18:15:00,
2013-06-09 12:20:00,78.4,42.6,29.85,SE,132,15.0,15.0,28,0.00,CLR,CLR,0.00,WeatherDisplay:10.34,2013-06-09 18:20:00,
2013-06-09 12:25:00,78.5,41.7,29.85,ESE,113,10.0,10.0,27,0.00,CLR,CLR,0.00,WeatherDisplay:10.34,2013-06-09 18:25:00,
2013-06-09 12:30:00,78.7,41.9,29.84,ESE,121,11.0,12.0,27,0.00,CLR,CLR,0.00,WeatherDisplay:10.34,2013-06-09 18:30:00,
2013-06-09 12:35:00,78.6,41.8,29.84,ESE,115,9.0,9.0,27,0.00,CLR,CLR,0.00,WeatherDisplay:10.34,2013-06-09 18:35:00,
2013-06-09 12:40:00,78.7,41.9,29.84,ESE,123,10.0,12.0,27,0.00,FEW,FEW,0.00,WeatherDisplay:10.34,2013-06-09 18:40:00,
2013-06-09 12:45:00,79.1,44.1,29.83,ESE,121,12.0,14.0,29,0.00,FEW,FEW,0.00,WeatherDisplay:10.34,2013-06-09 18:45:00,
2013-06-09 12:50:00,79.7,43.7,29.83,SE,130,18.0,18.0,28,0.00,FEW,FEW,0.00,WeatherDisplay:10.34,2013-06-09 18:50:00,
2013-06-09 12:55:00,79.7,45.5,29.83,ESE,109,12.0,12.0,30,0.00,FEW,FEW,0.00,WeatherDisplay:10.34,2013-06-09 18:55:00,
2013-06-09 13:00:00,80.6,43.5,29.83,ESE,107,18.0,18.0,27,0.00,FEW,FEW,0.00,WeatherDisplay:10.34,2013-06-09 19:00:00,
2013-06-09 13:05:00,80.8,42.7,29.83,ESE,105,16.0,16.0,26,0.00,FEW,FEW,0.00,WeatherDisplay:10.34,2013-06-09 19:05:00,
2013-06-09 13:10:00,80.7,42.6,29.83,SSE,147,14.0,14.0,26,0.00,FEW,FEW,0.00,WeatherDisplay:10.34,2013-06-09 19:10:00,
2013-06-09 13:15:00,80.8,42.7,29.81,SSE,149,13.0,15.0,26,0.00,FEW,FEW,0.00,WeatherDisplay:10.34,2013-06-09 19:15:00,
2013-06-09 13:20:00,80.5,46.2,29.81,SSE,149,12.0,0.0,30,0.00,FEW,FEW,0.00,WeatherDisplay:10.34,2013-06-09 19:20:00,
2013-06-09 13:25:00,81.0,42.9,29.81,ESE,105,11.0,11.0,26,0.00,FEW,FEW,0.00,WeatherDisplay:10.34,2013-06-09 19:25:00,
2013-06-09 13:30:00,81.3,43.1,29.81,ESE,116,17.0,0.0,26,0.00,FEW,FEW,0.00,WeatherDisplay:10.34,2013-06-09 19:30:00,
2013-06-09 13:35:00,81.4,43.2,29.80,ESE,120,12.0,12.0,26,0.00,FEW,FEW,0.00,WeatherDisplay:10.34,2013-06-09 19:35:00,
2013-06-09 13:40:00,81.6,42.3,29.80,SE,124,12.0,14.0,25,0.00,FEW,FEW,0.00,WeatherDisplay:10.34,2013-06-09 19:40:00,
2013-06-09 13:45:00,81.8,44.5,29.80,ENE,75,15.0,15.0,27,0.00,FEW,FEW,0.00,WeatherDisplay:10.34,2013-06-09 19:45:00,
2013-06-09 13:50:00,81.9,45.6,29.80,SE,136,13.0,13.0,28,0.00,FEW,FEW,0.00,WeatherDisplay:10.34,2013-06-09 19:50:00,
2013-06-09 13:55:00,82.1,44.8,29.80,SE,128,20.0,20.0,27,0.00,FEW,FEW,0.00,WeatherDisplay:10.34,2013-06-09 19:55:00,
2013-06-09 14:00:00,82.0,45.7,29.80,SE,134,18.0,22.0,28,0.00,FEW,FEW,0.00,WeatherDisplay:10.34,2013-06-09 20:00:00,
2013-06-09 14:05:00,81.8,42.5,29.79,SE,132,14.0,15.0,25,0.00,FEW,FEW,0.00,WeatherDisplay:10.34,2013-06-09 20:05:00,
2013-06-09 14:10:00,82.1,41.7,29.79,ESE,107,13.0,13.0,24,0.00,FEW,FEW,0.00,WeatherDisplay:10.34,2013-06-09 20:10:00,
2013-06-09 14:15:00,82.6,42.1,29.78,SE,131,15.0,15.0,24,0.00,FEW,FEW,0.00,WeatherDisplay:10.34,2013-06-09 20:15:00,
2013-06-09 14:20:00,83.0,42.5,29.78,ESE,115,11.0,0.0,24,0.00,FEW,FEW,0.00,WeatherDisplay:10.34,2013-06-09 20:20:00,
2013-06-09 14:25:00,83.4,42.8,29.78,ESE,107,17.0,20.0,24,0.00,FEW,FEW,0.00,WeatherDisplay:10.34,2013-06-09 20:25:00,
2013-06-09 14:30:00,82.8,42.3,29.78,East,93,15.0,15.0,24,0.00,FEW,FEW,0.00,WeatherDisplay:10.34,2013-06-09 20:30:00,
2013-06-09 14:35:00,83.0,43.5,29.77,East,100,16.0,16.0,25,0.00,FEW,FEW,0.00,WeatherDisplay:10.34,2013-06-09 20:35:00,
2013-06-09 14:40:00,83.2,43.7,29.77,SE,130,20.0,20.0,25,0.00,FEW,FEW,0.00,WeatherDisplay:10.34,2013-06-09 20:40:00,
2013-06-09 14:45:00,83.7,45.2,29.77,East,99,15.0,20.0,26,0.00,FEW,FEW,0.00,WeatherDisplay:10.34,2013-06-09 20:45:00,
2013-06-09 14:50:00,84.1,42.3,29.77,SE,133,14.0,14.0,23,0.00,FEW,FEW,0.00,WeatherDisplay:10.34,2013-06-09 20:50:00,
2013-06-09 14:55:00,84.0,43.3,29.76,East,90,16.0,16.0,24,0.00,FEW,FEW,0.00,WeatherDisplay:10.34,2013-06-09 20:55:00,
2013-06-09 15:00:00,84.5,41.5,29.76,East,88,19.0,19.0,22,0.00,FEW,FEW,0.00,WeatherDisplay:10.34,2013-06-09 21:00:00,
2013-06-09 15:05:00,84.7,41.6,29.76,East,99,17.0,20.0,22,0.00,FEW,FEW,0.00,WeatherDisplay:10.34,2013-06-09 21:05:00,
2013-06-09 15:10:00,84.9,43.0,29.76,ESE,109,15.0,20.0,23,0.00,FEW,FEW,0.00,WeatherDisplay:10.34,2013-06-09 21:10:00,
2013-06-09 15:15:00,84.9,43.0,29.75,SE,125,21.0,23.0,23,0.00,FEW,FEW,0.00,WeatherDisplay:10.34,2013-06-09 21:15:00,
2013-06-09 15:20:00,85.3,42.1,29.75,ESE,110,18.0,0.0,22,0.00,FEW,FEW,0.00,WeatherDisplay:10.34,2013-06-09 21:20:00,
2013-06-09 15:25:00,85.6,41.2,29.75,East,101,15.0,15.0,21,0.00,FEW,FEW,0.00,WeatherDisplay:10.34,2013-06-09 21:25:00,
2013-06-09 15:30:00,85.6,42.4,29.75,ESE,107,15.0,17.0,22,0.00,FEW,FEW,0.00,WeatherDisplay:10.34,2013-06-09 21:30:00,
2013-06-09 15:35:00,86.0,42.7,29.74,ESE,111,16.0,16.0,22,0.00,FEW,FEW,0.00,WeatherDisplay:10.34,2013-06-09 21:35:00,
2013-06-09 15:40:00,86.1,42.8,29.74,SE,131,19.0,19.0,22,0.00,FEW,FEW,0.00,WeatherDisplay:10.34,2013-06-09 21:40:00,
2013-06-09 15:45:00,86.0,42.7,29.74,ESE,118,16.0,17.0,22,0.00,FEW,FEW,0.00,WeatherDisplay:10.34,2013-06-09 21:45:00,
2013-06-09 15:50:00,86.2,41.7,29.73,ENE,78,17.0,17.0,21,0.00,FEW,FEW,0.00,WeatherDisplay:10.34,2013-06-09 21:50:00,
2013-06-09 15:55:00,86.4,43.1,29.72,East,86,16.0,16.0,22,0.00,FEW,FEW,0.00,WeatherDisplay:10.34,2013-06-09 21:55:00,
2013-06-09 16:00:00,86.6,44.4,29.72,ESE,116,14.0,14.0,23,0.00,FEW,FEW,0.00,WeatherDisplay:10.34,2013-06-09 22:00:00,
2013-06-09 16:05:00,86.8,45.7,29.72,ESE,114,17.0,17.0,24,0.00,FEW,FEW,0.00,WeatherDisplay:10.34,2013-06-09 22:05:00,
2013-06-09 16:10:00,87.1,43.6,29.73,ESE,107,13.0,13.0,22,0.00,FEW,FEW,0.00,WeatherDisplay:10.34,2013-06-09 22:10:00,
2013-06-09 16:15:00,87.2,43.7,29.72,SE,130,20.0,20.0,22,0.00,FEW,FEW,0.00,WeatherDisplay:10.34,2013-06-09 22:15:00,
2013-06-09 16:20:00,87.1,42.4,29.72,SE,132,17.0,17.0,21,0.00,FEW,FEW,0.00,WeatherDisplay:10.34,2013-06-09 22:20:00,
2013-06-09 16:25:00,87.3,43.8,29.72,SE,124,16.0,16.0,22,0.00,FEW,FEW,0.00,WeatherDisplay:10.34,2013-06-09 22:25:00,
2013-06-09 16:30:00,87.3,42.6,29.72,SE,140,8.0,9.0,21,0.00,FEW,FEW,0.00,WeatherDisplay:10.34,2013-06-09 22:30:00,
2013-06-09 16:35:00,87.2,44.9,29.71,SE,138,21.0,21.0,23,0.00,FEW,FEW,0.00,WeatherDisplay:10.34,2013-06-09 22:35:00,
2013-06-09 16:40:00,87.3,45.0,29.71,SE,130,17.0,17.0,23,0.00,FEW,FEW,0.00,WeatherDisplay:10.34,2013-06-09 22:40:00,
2013-06-09 16:45:00,87.2,43.7,29.71,ESE,114,13.0,13.0,22,0.00,FEW,FEW,0.00,WeatherDisplay:10.34,2013-06-09 22:45:00,
2013-06-09 16:50:00,87.5,44.0,29.71,ESE,113,13.0,13.0,22,0.00,FEW,FEW,0.00,WeatherDisplay:10.34,2013-06-09 22:50:00,
2013-06-09 16:55:00,87.7,45.3,29.71,ESE,109,16.0,20.0,23,0.00,FEW,FEW,0.00,WeatherDisplay:10.34,2013-06-09 22:55:00,
2013-06-09 17:00:00,87.7,44.1,29.71,ESE,109,24.0,24.0,22,0.00,FEW,FEW,0.00,WeatherDisplay:10.34,2013-06-09 23:00:00,
2013-06-09 17:05:00,87.5,41.5,29.71,SSW,192,12.0,12.0,20,0.00,FEW,FEW,0.00,WeatherDisplay:10.34,2013-06-09 23:05:00,
2013-06-09 17:10:00,87.5,45.1,29.71,ESE,103,13.0,13.0,23,0.00,FEW,FEW,0.00,WeatherDisplay:10.34,2013-06-09 23:10:00,
2013-06-09 17:15:00,87.7,46.4,29.70,SSW,206,6.0,7.0,24,0.00,FEW,FEW,0.00,WeatherDisplay:10.34,2013-06-09 23:15:00,
2013-06-09 17:20:00,87.8,43.0,29.70,SW,219,16.0,16.0,21,0.00,FEW,FEW,0.00,WeatherDisplay:10.34,2013-06-09 23:20:00,
2013-06-09 17:25:00,88.3,43.4,29.70,SW,229,13.0,14.0,21,0.00,FEW,FEW,0.00,WeatherDisplay:10.34,2013-06-09 23:25:00,
2013-06-09 17:30:00,88.5,43.6,29.69,SW,227,14.0,15.0,21,0.00,FEW,FEW,0.00,WeatherDisplay:10.34,2013-06-09 23:30:00,
2013-06-09 17:35:00,88.7,42.5,29.69,SW,233,18.0,18.0,20,0.00,FEW,FEW,0.00,WeatherDisplay:10.34,2013-06-09 23:35:00,
2013-06-09 17:40:00,88.6,42.4,29.69,SW,228,18.0,18.0,20,0.00,FEW,FEW,0.00,WeatherDisplay:10.34,2013-06-09 23:40:00,
2013-06-09 17:45:00,88.5,42.3,29.69,SW,232,14.0,14.0,20,0.00,FEW,FEW,0.00,WeatherDisplay:10.34,2013-06-09 23:45:00,
2013-06-09 17:50:00,88.5,42.3,29.69,SW,235,14.0,14.0,20,0.00,FEW,FEW,0.00,WeatherDisplay:10.34,2013-06-09 23:50:00,
2013-06-09 17:55:00,88.6,43.7,29.69,SW,217,17.0,20.0,21,0.00,FEW,FEW,0.00,WeatherDisplay:10.34,2013-06-09 23:55:00,
2013-06-09 18:00:00,88.5,43.6,29.69,SW,233,18.0,18.0,21,0.00,FEW,FEW,0.00,WeatherDisplay:10.34,2013-06-10 00:00:00,
2013-06-09 18:05:00,88.4,42.2,29.69,WSW,249,15.0,15.0,20,0.00,FEW,FEW,0.00,WeatherDisplay:10.34,2013-06-10 00:05:00,
2013-06-09 18:10:00,88.3,43.4,29.70,SW,225,21.0,21.0,21,0.00,FEW,FEW,0.00,WeatherDisplay:10.34,2013-06-10 00:10:00,
2013-06-09 18:16:00,88.0,43.2,29.69,WSW,241,15.0,17.0,21,0.00,FEW,FEW,0.00,WeatherDisplay:10.34,2013-06-10 00:16:00,
2013-06-09 18:21:00,87.9,43.1,29.69,WSW,250,20.0,22.0,21,0.00,FEW,FEW,0.00,WeatherDisplay:10.34,2013-06-10 00:21:00,
2013-06-09 18:26:00,87.9,43.1,29.69,WSW,237,17.0,17.0,21,0.00,FEW,FEW,0.00,WeatherDisplay:10.34,2013-06-10 00:26:00,
2013-06-09 18:31:00,87.8,43.0,29.69,SSW,212,18.0,20.0,21,0.00,FEW,FEW,0.00,WeatherDisplay:10.34,2013-06-10 00:31:00,
2013-06-09 18:36:00,87.4,41.4,29.69,WSW,240,20.0,21.0,20,0.00,SCT,SCT,0.00,WeatherDisplay:10.34,2013-06-10 00:36:00,
2013-06-09 18:41:00,87.1,42.4,29.69,SW,225,13.0,13.0,21,0.00,OVC,OVC,0.00,WeatherDisplay:10.34,2013-06-10 00:41:00,
2013-06-09 18:46:00,86.5,41.9,29.69,West,276,10.0,10.0,21,0.00,OVC,OVC,0.00,WeatherDisplay:10.34,2013-06-10 00:46:00,
2013-06-09 18:51:00,86.1,40.3,29.69,WSW,242,17.0,20.0,20,0.00,OVC,OVC,0.00,WeatherDisplay:10.34,2013-06-10 00:51:00,
2013-06-09 18:56:00,86.1,40.3,29.69,WSW,252,19.0,25.0,20,0.00,CLR,CLR,0.00,WeatherDisplay:10.34,2013-06-10 00:56:00,
2013-06-09 19:01:00,86.5,40.7,29.69,WSW,248,16.0,24.0,20,0.00,FEW,FEW,0.00,WeatherDisplay:10.34,2013-06-10 01:01:00,
2013-06-09 19:06:00,86.8,40.9,29.69,WSW,257,21.0,25.0,20,0.00,FEW,FEW,0.00,WeatherDisplay:10.34,2013-06-10 01:06:00,
2013-06-09 19:11:00,86.9,41.0,29.68,WSW,238,19.0,23.0,20,0.00,FEW,FEW,0.00,WeatherDisplay:10.34,2013-06-10 01:11:00,
2013-06-09 19:16:00,87.0,41.1,29.68,WSW,244,16.0,23.0,20,0.00,FEW,FEW,0.00,WeatherDisplay:10.34,2013-06-10 01:16:00,
2013-06-09 19:21:00,86.9,41.0,29.68,WSW,249,18.0,22.0,20,0.00,FEW,FEW,0.00,WeatherDisplay:10.34,2013-06-10 01:21:00,
2013-06-09 19:26:00,86.8,40.9,29.68,West,275,19.0,20.0,20,0.00,FEW,FEW,0.00,WeatherDisplay:10.34,2013-06-10 01:26:00,
2013-06-09 19:31:00,86.7,40.8,29.68,West,267,16.0,17.0,20,0.00,FEW,FEW,0.00,WeatherDisplay:10.34,2013-06-10 01:31:00,
2013-06-09 19:36:00,86.5,40.7,29.68,WSW,240,23.0,25.0,20,0.00,FEW,FEW,0.00,WeatherDisplay:10.34,2013-06-10 01:36:00,
2013-06-09 19:41:00,86.4,40.6,29.68,WSW,249,16.0,21.0,20,0.00,CLR,CLR,0.00,WeatherDisplay:10.34,2013-06-10 01:41:00,
2013-06-09 19:46:00,86.3,40.5,29.68,SW,226,13.0,14.0,20,0.00,CLR,CLR,0.00,WeatherDisplay:10.34,2013-06-10 01:46:00,
2013-06-09 19:51:00,86.0,41.5,29.68,WSW,253,12.0,14.0,21,0.00,FEW,FEW,0.00,WeatherDisplay:10.34,2013-06-10 01:51:00,
2013-06-09 19:56:00,85.8,40.1,29.68,SW,223,13.0,14.0,20,0.00,SCT,SCT,0.00,WeatherDisplay:10.34,2013-06-10 01:56:00,
2013-06-09 20:01:00,85.4,41.0,29.68,WSW,238,12.0,15.0,21,0.00,SCT,SCT,0.00,WeatherDisplay:10.34,2013-06-10 02:01:00,
2013-06-09 20:06:00,84.9,41.8,29.68,WSW,240,9.0,13.0,22,0.00,SCT,SCT,0.00,WeatherDisplay:10.34,2013-06-10 02:06:00,
2013-06-09 20:11:00,84.5,42.6,29.68,SSW,213,9.0,12.0,23,0.00,BKN,BKN,0.00,WeatherDisplay:10.34,2013-06-10 02:11:00,
2013-06-09 20:16:00,84.1,43.4,29.68,WSW,240,7.0,9.0,24,0.00,BKN,BKN,0.00,WeatherDisplay:10.34,2013-06-10 02:16:00,
2013-06-09 20:21:00,83.6,43.0,29.68,SW,233,6.0,9.0,24,0.00,OVC,OVC,0.00,WeatherDisplay:10.34,2013-06-10 02:21:00,
2013-06-09 20:26:00,83.2,42.6,29.68,WSW,237,7.0,8.0,24,0.00,OVC,OVC,0.00,WeatherDisplay:10.34,2013-06-10 02:26:00,
2013-06-09 20:31:00,82.9,43.5,29.68,SSW,213,4.0,4.0,25,0.00,OVC,OVC,0.00,WeatherDisplay:10.34,2013-06-10 02:31:00,
2013-06-09 20:36:00,82.5,43.1,29.68,WNW,291,4.0,5.0,25,0.00,OVC,OVC,0.00,WeatherDisplay:10.34,2013-06-10 02:36:00,
2013-06-09 20:41:00,82.2,41.8,29.67,West,264,6.0,7.0,24,0.00,OVC,OVC,0.00,WeatherDisplay:10.34,2013-06-10 02:41:00,
2013-06-09 20:46:00,81.8,44.5,29.67,West,264,0.0,1.0,27,0.00,OVC,OVC,0.00,WeatherDisplay:10.34,2013-06-10 02:46:00,
2013-06-09 20:51:00,80.8,45.6,29.66,SSE,164,2.0,2.0,29,0.00,OVC,OVC,0.00,WeatherDisplay:10.34,2013-06-10 02:51:00,
2013-06-09 20:56:00,80.0,44.0,29.66,SSE,150,3.0,3.0,28,0.00,OVC,OVC,0.00,WeatherDisplay:10.34,2013-06-10 02:56:00,
2013-06-09 21:01:00,79.5,43.5,29.66,SSE,150,2.0,2.0,28,0.00,CLR,CLR,0.00,WeatherDisplay:10.34,2013-06-10 03:01:00,
2013-06-09 21:06:00,79.0,44.0,29.67,SSE,150,0.0,1.0,29,0.00,CLR,CLR,0.00,WeatherDisplay:10.34,2013-06-10 03:06:00,
2013-06-09 21:11:00,78.6,44.6,29.67,SSE,150,2.0,2.0,30,0.00,CLR,CLR,0.00,WeatherDisplay:10.34,2013-06-10 03:11:00,
2013-06-09 21:16:00,77.5,45.3,29.67,SSE,150,3.0,3.0,32,0.00,CLR,CLR,0.00,WeatherDisplay:10.34,2013-06-10 03:16:00,
2013-06-09 21:21:00,76.8,43.9,29.66,SSE,151,0.0,1.0,31,0.00,CLR,CLR,0.00,WeatherDisplay:10.34,2013-06-10 03:21:00,
2013-06-09 21:26:00,76.4,43.5,29.66,SSE,150,0.0,0.0,31,0.00,CLR,CLR,0.00,WeatherDisplay:10.34,2013-06-10 03:26:00,
2013-06-09 21:31:00,76.0,44.8,29.67,SSE,150,0.0,1.0,33,0.00,CLR,CLR,0.00,WeatherDisplay:10.34,2013-06-10 03:31:00,
2013-06-09 21:36:00,75.5,44.4,29.67,SSE,150,1.0,1.0,33,0.00,CLR,CLR,0.00,WeatherDisplay:10.34,2013-06-10 03:36:00,
2013-06-09 21:41:00,74.9,43.8,29.67,ESE,107,6.0,6.0,33,0.00,CLR,CLR,0.00,WeatherDisplay:10.34,2013-06-10 03:41:00,
2013-06-09 21:46:00,74.2,45.5,29.67,SW,223,1.0,2.0,36,0.00,CLR,CLR,0.00,WeatherDisplay:10.34,2013-06-10 03:46:00,
2013-06-09 21:51:00,73.7,45.1,29.68,SW,215,5.0,5.0,36,0.00,CLR,CLR,0.00,WeatherDisplay:10.34,2013-06-10 03:51:00,
2013-06-09 21:56:00,73.2,44.6,29.68,SW,216,0.0,1.0,36,0.00,CLR,CLR,0.00,WeatherDisplay:10.34,2013-06-10 03:56:00,
2013-06-09 22:01:00,72.8,44.3,29.68,SW,215,0.0,0.0,36,0.00,CLR,CLR,0.00,WeatherDisplay:10.34,2013-06-10 04:01:00,
2013-06-09 22:02:00,72.7,44.2,29.68,SW,216,0.0,0.0,36,0.00,CLR,CLR,0.00,WeatherDisplay:10.34,2013-06-10 04:02:00,
2013-06-09 22:04:00,72.5,44.0,29.68,SW,216,0.0,0.0,36,0.00,CLR,CLR,0.00,WeatherDisplay:10.34,2013-06-10 04:04:00,
2013-06-09 22:06:00,72.4,43.9,29.68,SW,216,0.0,0.0,36,0.00,CLR,CLR,0.00,WeatherDisplay:10.34,2013-06-10 04:06:00,
2013-06-09 22:11:00,72.1,43.7,29.68,SW,216,0.0,1.0,36,0.00,CLR,CLR,0.00,WeatherDisplay:10.34,2013-06-10 04:11:00,
2013-06-09 22:16:00,71.7,44.0,29.68,SW,217,2.0,2.0,37,0.00,CLR,CLR,0.00,WeatherDisplay:10.34,2013-06-10 04:16:00,
2013-06-09 22:21:00,71.3,44.4,29.69,WNW,283,4.0,4.0,38,0.00,CLR,CLR,0.00,WeatherDisplay:10.34,2013-06-10 04:21:00,
2013-06-09 22:26:00,70.7,44.5,29.69,WNW,283,2.0,2.0,39,0.00,CLR,CLR,0.00,WeatherDisplay:10.34,2013-06-10 04:26:00,
2013-06-09 22:31:00,70.3,44.2,29.69,WNW,283,2.0,2.0,39,0.00,CLR,CLR,0.00,WeatherDisplay:10.34,2013-06-10 04:31:00,
2013-06-09 22:36:00,70.3,42.1,29.69,WNW,283,0.0,0.0,36,0.00,CLR,CLR,0.00,WeatherDisplay:10.34,2013-06-10 04:36:00,
2013-06-09 22:41:00,70.0,43.9,29.69,WSW,248,0.0,0.0,39,0.00,CLR,CLR,0.00,WeatherDisplay:10.34,2013-06-10 04:41:00,
2013-06-09 22:46:00,69.8,43.0,29.69,NW,306,2.0,2.0,38,0.00,CLR,CLR,0.00,WeatherDisplay:10.34,2013-06-10 04:46:00,
2013-06-09 22:51:00,69.7,42.9,29.70,NW,313,4.0,4.0,38,0.00,CLR,CLR,0.00,WeatherDisplay:10.34,2013-06-10 04:51:00,
2013-06-09 22:56:00,69.5,43.4,29.70,WNW,298,1.0,2.0,39,0.00,CLR,CLR,0.00,WeatherDisplay:10.34,2013-06-10 04:56:00,
2013-06-09 23:01:00,69.3,43.9,29.70,NW,325,4.0,5.0,40,0.00,CLR,CLR,0.00,WeatherDisplay:10.34,2013-06-10 05:01:00,
2013-06-09 23:06:00,69.1,45.0,29.70,NNW,327,4.0,5.0,42,0.00,CLR,CLR,0.00,WeatherDisplay:10.34,2013-06-10 05:06:00,
2013-06-09 23:11:00,69.1,45.7,29.72,NW,323,5.0,7.0,43,0.00,CLR,CLR,0.00,WeatherDisplay:10.34,2013-06-10 05:11:00,
2013-06-09 23:16:00,69.4,45.9,29.72,NNW,334,8.0,9.0,43,0.00,CLR,CLR,0.00,WeatherDisplay:10.34,2013-06-10 05:16:00,
2013-06-09 23:21:00,70.3,45.5,29.72,NW,315,8.0,10.0,41,0.00,CLR,CLR,0.00,WeatherDisplay:10.34,2013-06-10 05:21:00,
2013-06-09 23:26:00,70.6,46.4,29.72,NNW,329,8.0,10.0,42,0.00,CLR,CLR,0.00,WeatherDisplay:10.34,2013-06-10 05:26:00,
2013-06-09 23:31:00,70.3,46.1,29.72,NW,306,5.0,7.0,42,0.00,CLR,CLR,0.00,WeatherDisplay:10.34,2013-06-10 05:31:00,
2013-06-09 23:36:00,70.1,45.9,29.72,NW,321,6.0,8.0,42,0.00,CLR,CLR,0.00,WeatherDisplay:10.34,2013-06-10 05:36:00,
2013-06-09 23:41:00,70.0,46.5,29.72,NNW,340,9.0,12.0,43,0.00,CLR,CLR,0.00,WeatherDisplay:10.34,2013-06-10 05:41:00,
2013-06-09 23:46:00,69.9,46.4,29.72,NNW,327,6.0,12.0,43,0.00,CLR,CLR,0.00,WeatherDisplay:10.34,2013-06-10 05:46:00,
2013-06-09 23:51:00,69.8,46.9,29.73,NW,304,9.0,12.0,44,0.00,CLR,CLR,0.00,WeatherDisplay:10.34,2013-06-10 05:51:00,
2013-06-09 23:56:00,69.9,47.0,29.73,NW,305,9.0,10.0,44,0.00,CLR,CLR,0.00,WeatherDisplay:10.34,2013-06-10 05:56:00,